Regional Weather Roundup
Issued by NWS Green Bay, WI

Home | Current Version | Previous Version | Graphics & Text | Print | Product List | Glossary Off
Versions: 1 2 3 4 5 6 7 8 9 10 11 12 13 14 15 16 17 18 19 20 21 22 23 24 25 26 27 28 29 30 31 32 33 34 35 36 37 38 39 40 41 42 43 44 45 46 47 48 49 50

627
ASUS43 KGRB 161011
RWRGRB

NORTH-CENTRAL AND NORTHEAST WISCONSIN REGIONAL WEATHER ROUNDUP
NATIONAL WEATHER SERVICE GREEN BAY WI
400 AM CST TUE JAN 16 2018

WIZ005-009-010>012-018-019-161100-
NORTH CENTRAL WISCONSIN

CITY           SKY/WX    TMP DP  RH WIND       PRES   REMARKS
IRONWOOD       LGT SNOW  12  10  92 CALM      30.48S FOG
MANITOWISH WTR CLOUDY     1  -1  90 N3        30.42S
ARBOR VITAE    LGT SNOW   3  -1  85 CALM      30.41S
EAGLE RIVER    FLURRIES  -4  -9  79 CALM      30.40S
LAND O LAKES   MOCLDY    -2  -5  85 CALM      30.42R
RHINELANDER    FAIR       8   5  87 N3        30.41S
PHILLIPS       FAIR      -5  -7  90 CALM      30.45R FOG
ANTIGO         FAIR       5   3  92 N5        30.40R WCI  -4
TOMAHAWK       FAIR      -6  -9  85 CALM      30.43S
MERRILL        FAIR       5   3  94 CALM      30.44S
$$

WIZ013-073-161100-
NORTHEAST WISCONSIN

CITY           SKY/WX    TMP DP  RH WIND       PRES   REMARKS
IRON MOUNTAIN  MOCLDY     2  -3  80 CALM      30.40S
MARINETTE      FAIR       8   6  92 N8        30.45R WCI  -4
OCONTO         FAIR      10   7  87 N6        30.43R WCI   1
$$

WIZ017-030-035>037-045-161100-
CENTRAL WISCONSIN

CITY           SKY/WX    TMP DP  RH WIND       PRES   REMARKS
MEDFORD        FAIR       6   3  88 N5        30.42S WCI  -3
WAUSAU         FAIR       8   6  92 NW7       30.42R WCI  -3
MOSINEE        FLURRIES  10   9  92 N9        30.43R WCI  -2
MARSHFIELD     FAIR       9   5  84 N8        30.42R WCI  -3
WISC RAPIDS    MOCLDY    11   6  81 N12       30.45R WCI  -3
STEVENS POINT  FAIR       6   5  94 N6        30.44R WCI  -4
WAUPACA        CLOUDY    16  11  81 N12       30.43R WCI   3
SHAWANO        FAIR      14  10  85 N5        30.43R WCI   6
CLINTONVILLE   MOCLDY    14   9  79 N7        30.43R WCI   4
WAUTOMA        CLOUDY    13   9  84 N6        30.43R WCI   4
$$

WIZ038-039-048-051-161100-
FOX VALLEY

CITY           SKY/WX    TMP DP  RH WIND       PRES   REMARKS
NWS GREEN BAY  CLOUDY    15  10  80 N12       30.42R WCI   2
APPLETON       CLOUDY    14  10  85 N9        30.38R WCI   2
OSHKOSH        CLOUDY    14  11  87 N9        30.39S WCI   2
FOND DU LAC    FLURRIES  16  10  77 N10       30.38F WCI   4
$$

WIZ022-050-052-161100-
EAST CENTRAL WISCONSIN

CITY           SKY/WX    TMP DP  RH WIND       PRES   REMARKS
EPHRAIM        LGT SNOW   6   3  88 N7        30.41R WCI  -6
WASHINGTON ISL FAIR      12   9  88 N9        30.42R WCI  -1
STURGEON BAY   LGT SNOW  10   7  87 N21       30.41R FOG     WCI  -9
MANITOWOC      LGT SNOW  16  14  93 NW10      30.38S FOG     WCI   3
SHEBOYGAN      LGT SNOW  17  14  88 N14       30.36R FOG     WCI   3
$$

LMZ563-521-522-541>543-161100-
LAKESHORE

STATION/POSITION TIME  TEMP    WIND        PRES    VSBY  WAVE
                       AIR SEA DIR/SP/G                  HT/PER
                 (UTC) (F)     (DEG/KT/KT) (MB)    (MI)  (FT/S)
SHEBOYGAN LKSHOR 1000   18     330/ 14/ 16 1029.4R
KEWAUNEE LKSHORE 0948   18     340/  7/ 11 1028.0R
NORTHPORT PIER   0940   17      CALM  /  1 1029.8R
MENOMINEE LKSHOR 0948    7     320/ 12/ 14 1030.1R
$$




USA.gov is the U.S. government's official web portal to all federal, state and local government web resources and services.